| time (UTC) | temp C | wind direction | speed KPH | gust KPH | rain 1hr cm | rain 24hr cm | rain mn cm | humidity % | barometer mb |
| 20260507075920 | 18 | 308 | 0.0 | 3.2 | 0.00 | 0.53 | 0.36 | 75 | 1011.5 |
| 20260507071628 | 18 | 40 | 6.4 | 16.1 | 0.00 | 0.00 | 0.00 | 81 | 990.0 |
| 20260507065914 | 16 | 306 | 1.6 | 6.4 | 0.00 | 0.53 | 0.36 | 87 | 1011.5 |
| 20260507061054 | 16 | 355 | 3.2 | 12.9 | 0.00 | 0.00 | 0.00 | 92 | 990.1 |
| 20260507050114 | 13 | 239 | 0.0 | 0.0 | 0.00 | 0.61 | 0.36 | 95 | 1010.9 |
| 20260507041510 | 15 | 313 | 1.6 | 8.0 | 0.00 | 0.00 | 0.00 | 92 | 989.6 |
| 20260507035916 | 13 | 239 | 0.0 | 0.0 | 0.00 | 0.61 | 0.36 | 94 | 1010.9 |
| 20260507021542 | 15 | 90 | 1.6 | 4.8 | 0.00 | 0.00 | 0.00 | 91 | 989.2 |
| 20260507015924 | 13 | 239 | 0.0 | 0.0 | 0.05 | 0.61 | 0.33 | 94 | 1010.9 |
| 20260507001501 | 15 | 332 | 0.0 | 3.2 | 0.00 | 0.00 | 0.00 | 89 | 990.1 |
| 20260506235930 | 14 | 207 | 0.0 | 4.8 | 0.05 | 0.38 | 0.05 | 92 | 1010.8 |
| 20260506221241 | 15 | 321 | 0.0 | 0.0 | 0.00 | 0.00 | 0.00 | 93 | 990.6 |
| 20260506215949 | 15 | 185 | 0.0 | 0.0 | 0.08 | 0.33 | 0.00 | 89 | 1010.7 |
| 20260506211130 | 16 | 346 | 1.6 | 8.0 | 0.00 | 0.00 | 0.00 | 93 | 990.4 |
| 20260506205929 | 15 | 191 | 1.6 | 6.4 | 0.05 | 0.23 | 0.23 | 89 | 1010.9 |
| 20260506191048 | 16 | 82 | 0.0 | 1.6 | 0.00 | 0.00 | 0.00 | 91 | 990.9 |
| 20260506185916 | 15 | 180 | 0.0 | 3.2 | 0.00 | 0.20 | 0.20 | 90 | 1010.5 |
| 20260506171244 | 17 | 50 | 3.2 | 6.4 | 0.00 | 0.00 | 0.00 | 87 | 990.5 |
| 20260506165928 | 17 | 186 | 3.2 | 9.7 | 0.00 | 0.15 | 0.15 | 79 | 1010.1 |
| 20260506155923 | 19 | 162 | 4.8 | 14.5 | 0.00 | 0.15 | 0.15 | 68 | 1010.1 |
| 20260506151522 | 18 | 138 | 1.6 | 8.0 | 0.00 | 0.00 | 0.00 | 83 | 990.7 |
| 20260506141101 | 19 | 122 | 4.8 | 11.3 | 0.00 | 0.00 | 0.00 | 80 | 990.9 |
| 20260506135926 | 20 | 177 | 12.9 | 22.5 | 0.00 | 0.15 | 0.15 | 65 | 1009.7 |
| 20260506121131 | 20 | 78 | 4.8 | 12.9 | 0.00 | 0.00 | 0.00 | 79 | 991.4 |
| 20260506115932 | 21 | 164 | 12.9 | 32.2 | 0.00 | 0.15 | 0.15 | 53 | 1010.4 |
| 20260506111024 | 19 | 154 | 4.8 | 12.9 | 0.00 | 0.00 | 0.00 | 79 | 991.4 |
| 20260506095926 | 20 | 174 | 3.2 | 12.9 | 0.00 | 0.15 | 0.15 | 70 | 1010.6 |
| 20260506091532 | 18 | 67 | 3.2 | 9.7 | 0.00 | 0.00 | 0.00 | 80 | 991.8 |